Location: Sevilla
(37.3933°N, 5.9839°W)
Time: 13:41:48
(UTC+02:00)

S-56A Canister/Altair - Pass Details

Date: 23 June 2024
Orbit: 638 x 2488 km, 38.9° (Epoch: 14 July)

Event Time Altitude Azimuth Distance (km) Brightness Sun altitude
Rises 22:43:11 0° 240° (WSW) 3,845 11.4 -9.7°
Reaches altitude 10° 22:45:29 10° 239° (WSW) 3,085 10.9 -10.1°
Maximum altitude 22:53:17 72° 156° (SSE) 1,623 9.0 -11.2°
Drops below altitude 10° 23:05:16 10° 75° (ENE) 4,586 11.2 -13.0°
Sets 23:09:27 0° 74° (ENE) 5,806 11.7 -13.6°
